User: anonymous   Login
Location: Ay?beleni
(36.6500°N, 30.3000°E)
Time: 12:22:52
(UTC+00:00)
Language:

Cosmos 1850 Rocket - Orbit

View from above orbital plane
View from above orbital plane
View from above satellite
View from above satellite

Ground track
Ground track

The orbit data is extracted from the following two-line orbital elements,

1 18096U 87049B   20190.81721898 -.00000025 +00000-0 +38553-6 0  9996
2 18096 074.0434 333.1628 0022464 231.7203 128.1930 14.36544068732209
Epoch (UTC): 08 July 2020 19:36:47
Eccentricity: 0.0022464
inclination: 74.0434°
perigee height: 754 km
apogee height: 786 km
right ascension of ascending node: 333.1628°
argument of perigee: 231.7203°
revolutions per day: 14.36544068
mean anomaly at epoch: 128.1930°
orbit number at epoch: 73220

The dashed part of the orbit path shows where the satellite is in the earth's shadow,  

DLR